Location: Dana
(41.8364°N, 106.7042°W)
Time: 14:25:11
(UTC+00:00)

Altair - Pass Details

Date: 11 May 2026
Orbit: 1501 x 1682 km, 47.2° (Epoch: 6 June)

Event Time Altitude Azimuth Distance (km) Brightness Sun altitude
Rises 12:20:17 0° 219° (SW) 4,820 9.6 4.2°
Reaches altitude 10° 12:23:26 10° 215° (SW) 3,859 9.1 4.8°
Maximum altitude 12:33:00 56° 140° (SE) 1,930 8.4 6.5°
Drops below altitude 10° 12:42:48 10° 66° (ENE) 3,948 12.5 8.2°
Sets 12:46:03 0° 63° (ENE) 4,938 12.2 8.8°
